Regional Weather Roundup
Issued by NWS

Home | Current Version | Previous Version | Graphics & Text | Print | Product List | Glossary On
Versions: 1 2 3 4 5 6 7 8 9 10 11 12 13 14 15 16 17 18 19 20 21 22 23 24 25 26 27 28 29 30 31 32 33 34 35 36 37 38 39 40 41 42 43 44 45 46 47 48 49 50
000
ASUS43 KBIS 261559
RWRND

NORTH DAKOTA REGIONAL WEATHER ROUNDUP
NATIONAL WEATHER SERVICE BISMARCK ND
1000 AM CST WED NOV 26 2014

NOTE: "FAIR" INDICATES FEW OR NO CLOUDS BELOW 12,000 FEET WITH NO
SIGNIFICANT WEATHER AND/OR OBSTRUCTIONS TO VISIBILITY.


NDZ001>003-009>011-017-261700-
NORTHWEST NORTH DAKOTA

CITY           SKY/WX    TMP DP  RH WIND       PRES   REMARKS
WILLISTON      CLOUDY    10   4  76 N9        30.34R WCI  -3
MINOT          CLOUDY     3  -2  79 N7        30.37R HAZE    WCI  -9
MINOT AFB      CLOUDY     3  -2  78 NE5       30.37R WCI  -6
$$

NDZ018>021-031>035-040>046-261700-
SOUTHWEST NORTH DAKOTA

CITY           SKY/WX    TMP DP  RH WIND       PRES   REMARKS
BISMARCK       LGT SNOW   8   3  80 NE5       30.37R WCI   0
GARRISON         N/A      7   2  80 NE3       30.33R
HETTINGER ARPT LGT SNOW  22  19  89 SW3       30.23R FOG
$$

NDZ004>008-012>016-024-026-027-054-261700-
NORTHEAST NORTH DAKOTA

CITY           SKY/WX    TMP DP  RH WIND       PRES   REMARKS
GRAND FORKS    CLOUDY     0  -7  72 N15       30.44R WCI -19
DEVILS LAKE    CLOUDY     0 -11  60 N9        30.37R WCI -16
$$

NDZ022-023-025-028>030-036>039-047>053-261700-
SOUTHEAST NORTH DAKOTA

CITY           SKY/WX    TMP DP  RH WIND       PRES   REMARKS
FARGO          CLOUDY     4  -3  73 N16       30.37R WCI -15
$$



USA.gov is the U.S. government's official web portal to all federal, state and local government web resources and services.